sat.trackr.live / text

‹ back to catalog

ZHIHUI TIANWANG-1 01A

NORAD 59705 · 2024-087A

PAYLOAD ACTIVE UNKNOWN

§ Identity

Operator
Country
PRC
Launch date
2024-05-09
Launch site
XICLF
Launch vehicle
Mass (kg)
RCS (m²)

External: N2YO · Heavens-Above · Gunter

§ Orbital elements

Epoch: 2026-05-24T04:44:21.787296Z

Period
717.97 min
Inclination
53.1260°
Eccentricity
0.0026890
Mean motion
2.00564254 rev/d
Perigee alt
20,110.7 km
Apogee alt
20,253.6 km
Semi-major
26,560.3 km
B*
0.0000e+0
RAAN
171.5702°
Arg perigee
205.5771°
Mean anomaly
154.3434°
Rev number
1,482

§ Raw data

ZHIHUI TIANWANG-1 01A1 59705U 24087A   26144.19747439  .00000063  00000+0  00000+0 0  99952 59705  53.1260 171.5702 0026890 205.5771 154.3434  2.00564254 14827

JSON: /api/v1/satellites/59705 · /tle

For live sub-satellite position, see the globe view (requires WebGL).

§ Visibility from observer

Set your observer location to see the next 7 days of passes ≥ 10°. The values pass through the URL so the page stays shareable.

No JS? Fill the form by hand. The geolocation button needs JavaScript.